Wind_Speed
34 33 30 27 25 26 26 25 25 25 24 21 20 19 16 14 12 10 9 7 7 9 9 10 11 13 14 15 15 15 15 15 13 11 10 12 16 20 24 28 31 33 34 32 30 28 26 25 25 25 24 23 22 21 20 19 18 16 15 15 15 16 16
35 35 35 33 30 30 30 28 28 27 26 24 22 21 20 18 16 13 11 9 7 7 8 8 8 9 11 12 12 12 13 13 12 10 10 12 15 19 24 28 31 33 33 31 29 27 26 24 24 24 23 23 22 20 19 17 16 15 14 13 13 13 14
35 34 36 36 35 35 32 31 31 29 28 27 25 24 23 21 19 16 13 11 10 8 7 7 7 7 8 9 10 10 10 11 10 9 9 11 14 18 22 27 31 33 32 30 27 26 25 24 23 23 22 22 21 19 18 16 15 14 13 12 12 11 12
39 37 37 36 38 38 34 31 32 32 30 29 28 27 25 24 23 20 18 15 14 13 10 7 6 5 6 7 7 7 7 8 8 8 8 10 13 17 21 25 29 31 30 28 26 25 24 23 22 22 21 21 20 19 17 15 14 12 11 10 9 9 9
43 43 43 42 43 42 37 33 32 34 34 31 30 30 29 28 26 24 23 20 19 18 14 9 8 7 6 5 4 5 4 4 5 6 7 9 12 16 20 24 28 29 28 26 25 24 23 22 21 21 20 20 19 18 17 15 13 11 10 8 7 7 7
45 46 45 45 46 46 45 40 35 36 38 34 30 31 30 31 30 27 25 24 21 19 17 14 12 10 9 7 5 3 2 0 3 5 7 9 12 16 19 23 26 27 26 25 23 23 22 21 20 20 20 19 19 18 16 15 13 11 10 8 6 5 4
45 43 42 44 46 46 45 42 37 37 41 38 33 32 31 31 32 30 27 26 24 22 19 19 18 17 16 12 9 7 6 4 4 5 7 9 12 15 19 23 25 26 25 24 22 22 22 21 20 19 19 19 19 18 17 15 14 12 10 9 7 5 4
45 40 39 41 43 43 42 41 38 37 42 43 39 35 32 31 33 32 30 30 28 26 23 21 19 19 19 16 13 12 10 8 7 7 9 10 13 16 19 23 25 26 25 24 22 21 21 21 20 20 19 19 19 18 18 17 15 14 12 10 9 7 6
49 41 38 39 41 41 42 42 38 36 40 45 44 39 35 32 33 33 33 33 32 30 28 24 21 21 21 20 18 15 13 12 11 10 10 11 13 16 19 23 25 26 26 25 23 22 21 21 20 20 20 20 19 19 18 18 17 16 15 13 11 10 9
55 45 39 40 39 39 41 43 41 37 38 43 45 44 39 35 34 34 35 37 36 34 33 29 26 25 24 23 21 18 17 16 15 14 13 12 12 14 17 21 24 26 26 26 25 24 23 22 21 20 20 20 20 20 19 19 18 18 17 16 14 13 12
60 52 43 40 38 36 40 44 44 42 39 39 42 45 43 39 35 35 37 39 39 38 38 35 32 31 29 26 25 23 21 20 20 19 17 15 14 14 15 18 21 23 25 26 26 25 24 24 22 22 21 21 21 20 20 20 20 19 19 18 17 16 15
64 59 50 44 42 39 40 44 47 46 42 38 39 42 44 42 37 36 37 40 43 44 42 40 38 36 35 32 29 28 26 24 24 22 21 20 18 16 17 19 20 22 23 24 25 24 24 24 24 23 23 22 22 21 22 22 21 21 21 20 19 18 17
67 65 58 51 47 43 41 46 49 48 46 43 40 42 45 45 41 39 38 39 44 46 45 44 41 40 39 36 33 32 30 28 27 25 24 24 22 21 21 21 21 22 23 24 24 23 23 24 24 24 23 23 22 22 23 23 23 24 23 22 21 19 18
69 70 66 58 52 45 43 48 52 51 50 49 46 45 47 47 44 43 43 42 44 48 48 47 44 42 42 40 38 37 35 33 31 29 27 26 26 25 24 23 22 22 23 24 25 24 23 24 25 24 23 23 22 22 25 26 26 25 24 22 22 21 19
70 73 72 66 60 51 47 51 54 53 54 54 51 48 48 49 47 45 47 47 48 49 50 49 47 44 44 44 42 41 40 38 36 33 30 29 28 28 28 26 25 24 25 25 25 25 25 26 27 25 24 24 23 23 26 28 27 26 25 24 24 22 21
71 73 75 73 70 64 56 55 56 56 56 57 57 54 51 51 51 49 49 50 50 51 50 50 49 46 43 42 43 44 42 41 39 36 34 32 31 31 31 30 29 28 28 27 26 26 27 28 28 27 26 26 25 25 27 30 29 27 27 27 25 24 23
72 74 76 76 77 75 67 62 62 61 60 59 59 58 56 54 54 53 53 53 53 54 53 52 53 50 44 41 43 46 46 44 42 39 37 36 35 34 34 34 33 33 32 31 30 29 29 29 29 28 28 28 26 26 28 31 31 29 29 29 27 26 26
72 73 76 77 78 76 72 71 72 68 65 62 59 59 61 59 57 57 57 56 56 55 54 54 54 49 44 43 46 48 50 48 45 43 41 40 38 37 37 37 37 36 36 35 34 32 31 31 29 29 29 28 26 27 28 28 29 31 31 30 29 28 28
73 72 74 77 79 77 74 77 78 74 69 66 62 60 62 63 61 61 61 59 57 55 55 57 57 51 46 46 48 49 53 52 48 45 44 42 42 41 41 41 40 39 38 38 37 36 35 34 32 31 31 29 28 29 30 28 29 31 31 31 30 30 29
75 75 74 76 80 80 78 79 81 78 73 69 65 63 64 65 64 64 64 62 60 59 59 60 61 60 56 53 50 48 51 53 51 48 47 46 45 45 45 44 43 42 42 41 40 39 38 38 36 35 35 33 30 31 33 33 32 32 32 32 32 31 31
76 77 77 77 80 83 82 81 82 81 77 71 67 66 66 67 66 66 67 67 65 65 64 63 63 63 63 62 59 53 51 53 54 53 53 51 49 48 49 49 48 47 45 44 43 42 42 42 40 38 38 36 33 35 38 38 35 34 34 35 35 34 33
76 79 80 80 80 82 84 83 84 84 80 72 68 68 68 67 68 68 69 70 71 70 68 67 66 65 65 65 65 61 56 56 57 58 59 56 53 52 53 53 52 51 49 47 46 45 45 45 43 41 40 38 37 39 41 39 37 37 37 38 38 37 36
75 78 81 83 83 83 84 85 85 86 85 78 71 70 70 67 67 69 70 72 74 74 73 72 71 69 68 69 69 67 64 62 61 62 63 61 57 56 56 56 56 55 53 51 49 48 48 47 46 44 44 42 42 44 43 40 39 38 39 40 40 39 39
72 75 78 81 83 85 86 86 85 86 88 86 81 77 74 71 68 69 70 71 72 74 75 76 75 73 72 73 73 73 72 70 67 66 65 65 62 60 59 59 58 58 56 54 53 51 50 50 49 48 47 46 46 47 45 43 42 41 40 42 43 41 41
70 73 75 78 81 83 85 86 86 85 86 90 91 88 83 79 75 74 74 72 71 72 73 75 75 73 72 74 76 76 75 74 72 70 68 68 67 65 63 62 61 60 59 57 56 55 53 53 52 51 49 48 47 48 47 45 45 45 45 45 45 45 44
67 70 72 75 77 80 82 84 87 87 87 90 94 95 92 88 85 83 81 76 72 72 73 74 74 73 72 73 76 78 77 75 74 73 71 70 69 69 68 66 65 64 62 61 59 58 57 56 55 54 52 50 50 50 49 47 46 47 49 50 49 48 47
62 65 67 71 74 76 79 81 85 88 89 91 93 96 97 96 93 91 88 84 79 77 76 74 75 76 75 74 75 76 78 78 77 76 75 73 72 72 72 71 70 68 67 65 64 62 60 59 58 57 56 55 54 53 51 51 50 49 50 52 52 51 50
58 60 62 65 69 72 75 78 82 85 89 91 93 94 97 99 99 98 95 91 88 85 82 79 78 78 78 78 76 75 75 77 78 78 78 77 76 75 75 75 74 73 72 70 69 67 66 64 62 61 59 58 58 57 55 55 57 56 53 52 54 54 53
55 57 58 59 62 67 71 75 79 83 87 90 92 93 95 98 101 102 101 98 95 93 90 86 82 81 80 80 80 78 76 76 76 77 78 79 79 79 79 78 78 78 77 75 73 72 70 69 68 66 64 62 61 61 60 59 60 61 59 56 57 58 57
53 54 55 56 57 60 65 70 75 80 84 87 90 92 93 96 99 103 104 103 101 99 97 92 87 85 84 82 81 80 80 80 79 78 79 79 80 81 81 81 81 81 81 80 78 76 74 73 71 70 69 68 66 65 64 63 63 64 63 61 61 62 62
51 51 52 54 54 56 59 64 70 75 79 84 89 91 93 94 96 100 104 105 105 104 101 98 94 91 88 86 84 82 82 83 83 82 81 81 82 81 82 83 84 84 83 83 82 81 79 77 75 72 71 71 71 69 68 67 67 67 67 64 63 64 65
49 49 50 51 52 53 55 59 64 69 74 80 85 89 92 93 94 95 99 103 106 106 104 102 100 98 95 92 89 87 84 84 84 84 84 84 84 84 83 84 85 86 86 85 85 84 83 82 80 77 75 74 74 74 73 72 71 71 70 69 67 66 67
49 49 50 51 52 53 54 56 60 64 69 74 79 84 89 92 93 93 93 97 102 105 105 104 103 103 102 100 97 93 90 87 86 86 85 86 86 86 85 85 86 87 87 87 87 87 86 86 85 84 82 79 78 77 77 76 76 75 75 74 73 72 72
50 50 51 51 52 53 55 56 58 61 64 69 74 78 83 88 91 93 92 93 95 100 103 105 105 104 105 105 103 100 97 93 90 88 88 88 87 88 88 88 87 87 88 88 88 88 88 88 88 88 88 86 85 83 82 81 80 80 80 80 80 80 80
51 51 50 50 50 51 53 55 57 58 61 65 69 73 77 81 86 90 92 93 93 94 97 100 103 104 106 106 105 104 102 99 95 92 91 91 90 89 90 90 90 90 89 89 89 89 89 90 90 91 91 91 91 90 88 87 86 85 85 85 85 87 87
51 51 50 50 49 49 50 52 55 56 58 61 65 69 72 76 80 84 88 91 93 94 95 96 97 100 103 106 107 106 103 101 99 97 95 94 94 93 92 92 93 93 93 93 92 92 92 91 91 92 92 92 93 93 93 92 92 91 91 90 90 91 92
51 51 51 50 50 50 50 51 53 55 57 58 61 64 67 72 75 79 82 87 90 93 95 96 96 96 98 102 106 107 105 102 100 100 99 97 97 97 96 95 95 95 96 96 96 96 96 95 95 95 95 95 95 95 95 96 96 96 96 96 96 96 97
50 50 51 51 51 51 52 52 53 55 56 58 60 61 64 67 71 75 78 81 85 89 92 94 95 95 95 97 101 105 106 104 102 101 102 101 99 99 99 99 98 98 97 97 98 99 99 99 99 98 98 98 98 98 98 98 99 100 100 101 101 102 102
Wind_Direction
216 218 220 223 229 236 243 244 235 230 231 228 227 234 238 242 251 260 268 286 309 324 341 353 359 3 6 14 26 37 41 42 52 70 93 116 130 138 141 143 144 146 146 145 144 143 144 143 143 142 140 138 136 133 130 127 122 118 111 106 100 94 87
223 227 229 227 229 234 236 240 238 230 230 232 229 231 235 238 242 249 255 261 276 298 315 331 345 354 359 5 16 31 43 45 52 69 93 116 132 141 145 148 149 149 149 148 148 148 149 148 148 147 146 144 142 139 137 134 129 124 118 111 104 97 91
226 230 233 229 228 232 232 234 238 235 230 231 231 230 232 235 238 240 245 249 254 266 280 299 318 334 344 354 3 19 39 50 56 71 95 118 134 144 149 153 154 153 152 151 152 154 154 154 154 153 152 151 148 147 145 143 137 132 125 117 109 103 96
231 232 233 229 226 229 229 229 237 240 233 230 232 232 230 233 236 236 235 232 233 240 243 256 279 298 317 335 350 4 27 51 63 78 102 122 137 148 154 158 158 157 156 156 157 159 159 159 160 160 160 158 157 155 154 152 147 141 134 125 117 108 99
231 231 230 228 225 227 229 231 237 239 235 232 233 231 228 228 232 235 234 227 218 218 218 225 251 268 276 292 318 340 3 50 74 90 111 131 143 152 158 162 163 162 161 161 162 164 166 166 166 168 168 168 166 165 164 163 160 155 149 142 133 122 108
226 229 229 228 229 232 235 239 240 234 230 230 228 228 227 226 227 231 235 236 230 221 206 198 214 236 244 248 254 270 291 352 115 115 126 141 151 158 163 166 168 167 167 167 168 171 173 174 174 175 177 178 177 176 176 176 175 173 170 166 161 151 132
223 227 230 230 232 234 235 238 239 231 226 223 221 222 225 226 227 229 233 237 237 234 220 200 199 214 221 223 224 224 229 224 191 161 150 152 159 165 169 172 174 175 174 174 175 177 179 182 183 185 185 187 187 187 188 189 190 191 191 190 190 189 184
219 223 228 231 232 233 232 233 237 233 226 222 218 219 222 224 228 229 231 233 233 234 232 218 210 218 221 217 216 215 217 221 213 193 174 166 168 172 175 178 180 181 182 183 183 184 186 189 191 193 194 195 196 198 199 200 202 205 208 212 215 217 221
217 219 223 224 226 227 227 228 231 230 226 223 219 219 221 226 230 230 230 234 234 234 233 226 221 224 225 222 218 215 214 218 219 213 199 184 178 178 180 183 186 187 189 191 192 192 193 195 196 198 201 203 205 207 208 210 212 215 219 224 230 235 238
217 217 219 219 220 224 225 225 226 226 225 223 221 222 223 227 233 234 232 233 235 235 233 230 228 229 229 226 222 217 214 215 219 218 209 201 197 191 187 188 191 194 196 197 198 199 200 200 201 202 204 207 211 214 217 218 220 223 227 232 237 243 246
217 215 215 215 216 221 223 224 225 226 225 225 223 222 221 223 228 230 229 231 233 235 234 232 231 233 234 232 229 224 217 214 218 218 214 210 208 204 199 196 196 199 201 203 205 205 205 205 205 206 208 211 215 219 222 225 227 229 232 236 239 243 245
217 214 214 215 215 217 220 221 223 224 225 225 224 220 215 216 220 220 221 226 230 231 233 232 231 231 234 234 233 231 223 218 219 220 220 220 215 212 212 208 203 201 203 206 208 208 209 209 208 209 212 216 219 223 225 228 231 232 234 236 237 239 241
219 215 214 215 215 216 219 219 219 221 221 221 222 219 212 212 216 216 217 223 229 229 230 231 231 231 233 234 234 234 228 223 223 222 220 221 218 215 218 217 213 209 206 206 208 210 212 212 211 211 213 216 221 226 230 230 232 233 233 234 236 237 239
221 218 216 214 213 215 220 219 217 217 217 217 218 217 213 212 216 218 217 221 228 229 227 229 230 230 233 233 233 235 231 226 225 224 220 220 220 219 220 220 219 218 215 212 212 213 212 212 214 215 215 215 217 227 233 232 232 234 234 235 236 236 236
221 220 218 215 213 216 220 219 217 215 215 215 215 215 215 214 216 218 217 219 225 228 227 227 227 230 233 233 232 234 233 227 225 225 222 222 224 226 225 223 222 222 222 220 218 217 213 212 215 217 216 216 215 223 235 236 233 233 235 236 236 234 234
221 221 220 217 217 220 222 221 221 218 216 215 215 215 216 216 215 215 217 220 224 229 229 227 226 229 233 233 231 232 232 228 225 225 224 223 226 229 227 225 224 223 224 224 223 222 220 217 217 215 216 219 216 218 231 238 235 232 233 235 234 234 234
222 221 221 219 219 222 224 225 225 222 218 217 217 216 215 215 215 216 218 221 224 228 229 227 225 227 230 231 230 231 232 230 228 226 225 225 227 229 228 227 226 226 226 227 226 226 225 225 222 219 221 224 220 218 227 233 232 232 234 234 234 234 236
223 223 222 222 222 222 224 226 227 224 220 219 220 218 216 215 217 219 220 222 223 225 226 225 223 223 227 229 229 231 231 229 229 228 227 227 228 230 231 230 229 228 229 230 230 228 228 228 227 227 230 230 226 226 232 234 232 234 236 236 236 236 237
223 223 223 223 222 223 223 225 226 225 222 221 221 222 219 217 218 219 220 221 221 221 223 224 222 218 219 222 224 227 228 227 228 230 230 230 230 230 233 233 232 230 230 232 232 230 229 230 230 233 236 235 232 235 239 237 234 236 238 239 239 238 237
223 224 224 223 223 223 223 225 226 225 225 224 224 223 222 220 219 219 219 220 220 219 220 223 224 222 221 221 220 223 227 227 229 232 233 233 231 231 233 234 234 233 231 231 232 231 231 231 233 236 237 236 235 239 242 239 235 236 239 240 241 240 239
224 224 224 223 223 223 223 225 226 226 225 226 227 226 223 223 222 221 220 220 219 220 221 223 226 229 229 229 228 230 231 230 231 233 234 234 233 233 235 235 235 235 234 233 232 233 234 235 236 237 237 236 235 238 241 241 239 239 240 241 243 243 242
224 225 224 224 224 224 225 225 227 227 226 225 226 226 223 223 224 222 221 221 220 220 221 223 225 229 232 234 235 235 234 233 232 233 235 235 233 233 235 237 237 237 237 236 235 235 236 238 238 238 238 238 238 239 241 242 242 243 243 242 244 246 246
226 226 226 226 226 226 226 226 227 228 227 225 223 222 221 220 222 222 222 223 223 223 223 224 225 228 232 234 236 235 234 233 233 233 234 236 235 233 234 236 238 239 239 239 239 239 239 239 239 239 239 241 242 243 243 243 243 245 246 245 246 248 249
228 228 228 228 228 228 227 227 227 228 228 227 225 222 220 219 220 220 221 222 225 226 227 227 228 229 231 233 234 235 233 232 233 233 234 235 235 234 234 235 237 239 240 241 241 241 241 240 241 241 242 243 244 245 246 245 246 248 249 248 248 248 249
232 231 230 229 229 229 229 229 228 228 228 229 227 225 223 222 222 223 222 221 223 227 229 230 230 230 230 232 233 233 233 232 232 232 233 234 236 236 236 237 237 238 240 241 242 242 242 242 243 244 244 245 246 247 249 249 249 251 253 252 251 250 250
235 234 233 232 230 230 230 230 229 229 229 230 230 227 225 226 227 228 226 223 222 225 228 231 232 231 230 231 233 233 233 232 232 233 233 234 235 237 238 239 239 239 240 241 241 241 241 242 244 244 245 247 249 249 249 249 251 254 256 255 253 253 253
237 237 237 236 233 231 231 231 230 230 230 231 231 230 228 228 229 230 231 229 226 225 226 228 232 234 234 233 233 233 233 233 234 235 235 235 236 237 239 241 241 241 241 241 241 241 241 241 242 243 244 246 249 250 249 248 250 254 255 254 254 255 254
238 238 239 239 237 235 233 232 232 231 232 232 232 232 231 230 229 230 232 233 232 230 229 229 229 232 235 236 236 235 233 233 234 236 237 237 237 237 239 241 242 243 243 242 243 243 243 242 242 243 243 244 246 247 248 249 250 252 254 253 254 256 255
240 240 239 240 240 238 236 235 234 233 233 233 233 232 232 232 231 231 232 234 234 235 235 234 231 229 231 234 237 238 237 235 234 235 237 237 238 238 239 239 241 243 244 244 244 245 245 245 244 243 243 244 244 245 246 248 250 252 253 253 253 254 255
244 243 242 241 241 240 239 238 237 235 234 234 234 233 232 232 232 232 232 234 235 235 237 237 235 232 230 231 234 236 239 239 238 237 237 237 237 238 239 240 240 242 243 245 245 245 246 247 246 245 244 244 244 244 245 246 248 250 252 252 252 253 255
247 247 246 243 241 241 241 240 239 238 237 236 236 235 234 232 232 232 233 233 234 235 236 237 237 237 235 235 234 234 235 238 240 240 240 239 239 238 239 240 241 242 243 244 245 246 246 247 248 247 246 246 245 245 245 245 246 248 250 251 250 250 252
248 249 250 249 246 243 242 242 241 240 239 239 238 237 236 234 233 233 233 233 234 235 235 236 237 238 239 239 238 237 235 235 237 240 241 241 241 240 240 240 241 242 243 244 245 246 247 248 248 248 248 247 247 247 246 246 246 247 248 249 249 248 248
248 250 251 252 251 248 245 243 243 242 242 241 240 239 238 237 236 235 234 234 234 235 236 236 237 238 240 241 241 241 240 237 236 237 239 241 242 243 243 242 241 242 243 244 245 246 247 248 249 249 249 249 249 248 248 248 248 247 247 247 248 248 248
248 250 251 252 252 251 249 246 244 244 243 243 242 241 240 239 238 237 235 235 235 235 236 237 238 239 240 241 242 243 243 242 239 236 236 239 241 242 243 244 244 243 243 244 245 246 247 248 248 249 251 251 251 250 250 250 250 250 249 249 248 249 249
247 249 251 252 252 252 251 248 246 244 244 244 244 244 243 241 240 239 237 236 236 235 236 237 238 239 240 241 242 243 243 243 242 239 237 237 238 241 242 244 245 245 245 245 246 246 247 248 249 250 251 252 253 253 253 252 251 251 251 251 251 251 252
249 250 251 252 253 253 253 252 249 247 244 244 244 245 245 244 243 241 240 239 238 237 237 238 239 240 240 241 242 243 243 243 243 242 240 237 236 238 240 242 244 245 246 247 247 248 248 249 249 250 251 252 254 255 255 255 254 253 253 253 253 253 254
250 251 252 252 253 253 252 252 252 251 248 245 244 244 245 246 245 244 243 241 240 239 239 239 240 241 241 241 241 242 243 243 242 241 241 240 238 237 237 239 242 244 246 247 248 249 249 250 251 251 252 253 254 255 257 257 258 257 256 255 255 254 255
252 253 253 254 254 253 252 251 251 251 251 249 246 244 244 244 245 246 245 244 243 241 241 241 241 241 242 242 242 241 242 243 242 241 241 241 241 240 238 237 239 241 243 245 247 248 249 250 251 252 253 254 255 256 257 258 259 260 259 259 258 257 257
Height
10964 10966 10967 10969 10971 10973 10975 10977 10980 10983 10985 10987 10989 10990 10991 10991 10991 10991 10991 10991 10992 10992 10991 10991 10990 10989 10988 10986 10984 10982 10981 10980 10979 10979 10979 10979 10979 10979 10980 10981 10982 10983 10985 10986 10988 10990 10991 10993 10995 10996 10997 10998 10999 11000 11001 11002 11003 11004 11004 11005 11005 11005 11005
10960 10961 10963 10965 10968 10970 10973 10975 10978 10980 10983 10985 10987 10989 10990 10990 10991 10991 10991 10991 10991 10991 10991 10991 10991 10990 10989 10988 10986 10984 10983 10982 10981 10981 10980 10981 10981 10981 10982 10983 10984 10985 10986 10988 10989 10991 10992 10994 10995 10997 10998 10999 11000 11001 11002 11003 11004 11005 11005 11006 11006 11006 11006
10955 10957 10959 10961 10965 10967 10971 10973 10975 10978 10981 10983 10985 10987 10988 10989 10989 10990 10990 10990 10990 10989 10990 10990 10991 10991 10990 10989 10988 10987 10985 10984 10983 10983 10982 10982 10983 10983 10984 10984 10985 10986 10987 10989 10990 10992 10993 10994 10996 10997 10999 11000 11001 11002 11003 11004 11005 11005 11006 11006 11007 11007 11007
10952 10953 10956 10958 10961 10964 10968 10971 10973 10975 10978 10981 10983 10985 10987 10987 10988 10988 10987 10986 10986 10986 10987 10988 10989 10990 10990 10990 10989 10988 10987 10986 10985 10984 10984 10984 10984 10985 10985 10986 10987 10988 10989 10990 10991 10993 10994 10995 10997 10998 10999 11000 11002 11003 11004 11005 11005 11006 11007 11007 11008 11008 11008
10947 10948 10951 10954 10957 10960 10963 10966 10969 10971 10974 10978 10980 10981 10984 10985 10986 10986 10985 10983 10981 10980 10982 10986 10988 10989 10990 10990 10990 10989 10988 10987 10987 10986 10986 10986 10986 10986 10987 10988 10989 10990 10990 10991 10993 10994 10995 10996 10998 10999 11000 11001 11002 11003 11004 11005 11006 11006 11007 11008 11008 11009 11009
10936 10939 10944 10949 10952 10955 10958 10961 10965 10967 10970 10974 10977 10978 10981 10982 10983 10984 10984 10983 10982 10981 10980 10981 10984 10988 10989 10990 10990 10989 10989 10988 10988 10987 10987 10987 10987 10988 10988 10989 10990 10991 10992 10993 10994 10995 10996 10997 10999 11000 11001 11002 11003 11004 11005 11006 11006 11007 11008 11008 11009 11009 11010
10931 10936 10941 10945 10948 10951 10954 10958 10962 10964 10966 10970 10973 10975 10977 10980 10981 10983 10983 10984 10983 10983 10982 10980 10981 10983 10986 10987 10988 10989 10989 10989 10988 10988 10988 10988 10988 10989 10989 10990 10991 10992 10993 10993 10995 10996 10997 10998 10999 11000 11002 11003 11004 11005 11006 11006 11007 11008 11008 11009 11009 11010 11010
10930 10935 10939 10942 10945 10948 10952 10956 10959 10961 10963 10966 10969 10971 10974 10977 10979 10980 10981 10982 10981 10982 10983 10983 10983 10983 10984 10985 10986 10987 10988 10988 10988 10988 10988 10988 10989 10989 10990 10990 10991 10992 10993 10994 10995 10996 10997 10998 11000 11001 11002 11003 11004 11005 11006 11007 11007 11008 11009 11009 11010 11010 11010
10927 10932 10935 10937 10940 10944 10948 10952 10955 10958 10960 10963 10966 10969 10972 10974 10976 10978 10979 10980 10980 10982 10983 10984 10984 10983 10983 10984 10985 10986 10987 10988 10989 10989 10989 10989 10989 10989 10989 10990 10991 10992 10992 10994 10995 10996 10997 10998 11000 11001 11002 11003 11004 11005 11006 11007 11008 11008 11009 11009 11010 11010 11011
10924 10929 10929 10931 10935 10940 10943 10947 10951 10954 10956 10959 10963 10967 10969 10971 10973 10975 10976 10978 10979 10981 10982 10983 10983 10982 10983 10984 10985 10986 10987 10988 10988 10989 10989 10990 10990 10990 10990 10990 10991 10991 10992 10993 10994 10995 10996 10997 10999 11000 11002 11003 11004 11005 11006 11007 11008 11008 11009 11009 11009 11010 11010
10917 10923 10924 10926 10930 10935 10939 10943 10946 10949 10951 10954 10957 10960 10964 10966 10968 10969 10972 10974 10977 10978 10980 10980 10981 10981 10982 10983 10984 10985 10986 10986 10987 10988 10988 10988 10988 10990 10991 10991 10991 10992 10993 10994 10994 10994 10995 10996 10997 10999 11000 11002 11003 11005 11006 11007 11007 11008 11008 11008 11009 11009 11010
10910 10917 10920 10921 10924 10929 10933 10937 10940 10943 10947 10949 10950 10953 10957 10961 10963 10964 10966 10969 10971 10973 10975 10976 10977 10978 10979 10980 10982 10983 10984 10985 10985 10986 10987 10987 10988 10989 10989 10989 10990 10991 10992 10993 10994 10995 10996 10996 10996 10996 10998 11000 11002 11004 11005 11005 11006 11006 11007 11007 11007 11008 11009
10904 10911 10915 10917 10919 10923 10926 10929 10934 10938 10942 10943 10945 10948 10952 10955 10958 10959 10961 10963 10965 10967 10970 10971 10973 10975 10976 10977 10979 10981 10982 10983 10984 10985 10986 10987 10987 10987 10987 10988 10989 10990 10991 10992 10993 10994 10995 10995 10994 10993 10994 10997 11001 11004 11004 11004 11004 11004 11004 11005 11006 11007 11008
10898 10903 10908 10911 10914 10916 10919 10922 10927 10932 10935 10938 10940 10943 10947 10950 10952 10954 10956 10958 10958 10960 10963 10966 10968 10971 10972 10974 10976 10977 10979 10981 10982 10983 10984 10985 10986 10986 10986 10986 10987 10988 10989 10990 10991 10992 10993 10993 10992 10992 10993 10995 11000 11003 11003 11002 11002 11002 11003 11004 11004 11005 11006
10890 10895 10900 10904 10907 10910 10912 10916 10920 10925 10928 10931 10935 10939 10941 10943 10945 10947 10950 10951 10952 10953 10956 10960 10963 10966 10968 10970 10972 10974 10976 10977 10979 10980 10981 10983 10984 10984 10984 10985 10986 10987 10987 10988 10989 10990 10990 10990 10990 10990 10992 10994 10997 11001 11002 11000 11000 11001 11002 11002 11002 11002 11003
10882 10886 10891 10897 10900 10903 10906 10910 10913 10918 10921 10924 10928 10932 10934 10935 10938 10941 10943 10945 10947 10949 10952 10956 10959 10961 10963 10966 10969 10970 10972 10974 10975 10977 10978 10979 10980 10981 10982 10983 10983 10984 10985 10985 10986 10987 10987 10987 10988 10988 10990 10992 10994 10996 10997 10998 10998 10999 10999 10998 10999 11000 11000
10874 10879 10883 10888 10892 10895 10900 10904 10905 10909 10913 10916 10920 10924 10926 10928 10931 10934 10936 10938 10941 10944 10947 10951 10953 10956 10959 10962 10964 10966 10968 10970 10971 10973 10974 10975 10977 10978 10979 10979 10980 10981 10982 10983 10983 10984 10985 10986 10986 10987 10988 10990 10991 10990 10990 10993 10995 10996 10996 10996 10996 10997 10997
10866 10870 10875 10880 10884 10889 10893 10895 10896 10901 10905 10909 10913 10916 10919 10921 10924 10927 10929 10931 10934 10938 10943 10946 10948 10952 10955 10958 10960 10962 10963 10964 10967 10968 10969 10970 10972 10974 10975 10975 10977 10978 10979 10980 10981 10982 10983 10984 10985 10986 10987 10988 10989 10988 10987 10990 10992 10993 10993 10993 10993 10994 10994
10859 10863 10867 10872 10877 10882 10883 10883 10889 10896 10900 10903 10907 10910 10913 10915 10916 10919 10921 10923 10927 10932 10936 10939 10943 10946 10947 10950 10954 10956 10957 10959 10961 10962 10963 10965 10967 10969 10971 10971 10973 10975 10976 10977 10978 10980 10981 10981 10983 10984 10985 10986 10987 10987 10986 10988 10989 10989 10990 10991 10991 10991 10991
10852 10855 10860 10864 10869 10872 10872 10875 10884 10891 10894 10897 10901 10903 10906 10908 10909 10911 10914 10917 10921 10925 10928 10931 10934 10937 10939 10942 10946 10949 10951 10952 10955 10957 10958 10960 10962 10964 10966 10967 10968 10970 10971 10972 10974 10976 10977 10978 10980 10981 10982 10984 10986 10986 10984 10983 10984 10985 10986 10987 10988 10988 10988
10845 10847 10851 10856 10860 10862 10864 10868 10876 10884 10889 10892 10894 10896 10899 10901 10903 10906 10908 10911 10914 10917 10920 10923 10925 10928 10932 10935 10938 10942 10944 10945 10947 10950 10951 10953 10957 10960 10961 10962 10963 10964 10966 10968 10970 10972 10973 10974 10976 10977 10978 10981 10983 10981 10977 10979 10981 10982 10983 10983 10984 10985 10986
10837 10840 10843 10848 10851 10854 10858 10862 10869 10876 10882 10886 10887 10889 10891 10894 10896 10899 10902 10904 10906 10909 10912 10916 10918 10920 10924 10927 10931 10934 10936 10937 10939 10942 10943 10946 10951 10954 10955 10956 10957 10959 10961 10963 10965 10967 10968 10970 10972 10973 10974 10976 10977 10974 10973 10976 10979 10979 10979 10980 10981 10982 10983
10829 10832 10835 10839 10843 10847 10851 10856 10862 10868 10872 10877 10880 10881 10883 10886 10888 10892 10895 10897 10899 10902 10905 10908 10911 10914 10916 10919 10922 10924 10927 10930 10932 10934 10937 10939 10943 10946 10948 10950 10951 10953 10955 10957 10960 10962 10964 10965 10967 10968 10970 10971 10971 10970 10971 10973 10974 10974 10975 10976 10977 10978 10979
10821 10824 10828 10831 10835 10839 10843 10849 10855 10860 10863 10867 10870 10871 10874 10877 10881 10885 10888 10890 10892 10894 10897 10900 10903 10906 10908 10910 10913 10915 10918 10921 10925 10928 10931 10933 10936 10939 10942 10943 10945 10947 10950 10952 10954 10957 10958 10960 10962 10963 10964 10965 10966 10966 10967 10969 10970 10970 10971 10972 10973 10974 10974
10813 10816 10819 10823 10826 10830 10835 10841 10846 10851 10853 10853 10855 10859 10863 10866 10871 10875 10878 10881 10885 10887 10890 10892 10896 10899 10900 10902 10904 10906 10909 10914 10918 10922 10925 10927 10930 10932 10934 10936 10938 10940 10943 10946 10948 10950 10952 10954 10955 10957 10958 10959 10961 10962 10963 10964 10965 10965 10966 10967 10968 10969 10969
10804 10807 10810 10813 10817 10822 10827 10831 10836 10840 10840 10839 10843 10849 10853 10857 10861 10864 10868 10873 10878 10881 10883 10885 10888 10890 10892 10894 10896 10899 10903 10908 10913 10916 10918 10922 10924 10926 10927 10929 10930 10933 10935 10938 10940 10943 10945 10947 10948 10950 10952 10953 10955 10956 10957 10958 10959 10960 10961 10962 10963 10963 10964
10795 10798 10801 10804 10808 10813 10817 10821 10824 10827 10829 10830 10834 10840 10844 10848 10852 10855 10859 10865 10870 10873 10876 10879 10881 10882 10884 10886 10888 10892 10897 10902 10906 10909 10911 10914 10917 10919 10921 10922 10923 10925 10927 10929 10932 10935 10937 10939 10941 10943 10945 10946 10948 10950 10952 10952 10953 10953 10954 10955 10956 10957 10958
10788 10791 10793 10796 10799 10803 10807 10810 10813 10816 10818 10820 10825 10831 10835 10839 10843 10846 10850 10855 10860 10863 10867 10871 10874 10875 10877 10878 10881 10885 10890 10894 10898 10900 10902 10905 10908 10911 10913 10914 10915 10917 10919 10921 10924 10926 10928 10931 10933 10935 10938 10939 10940 10942 10944 10945 10945 10946 10947 10949 10949 10950 10951
10780 10783 10785 10788 10790 10794 10797 10800 10802 10805 10808 10811 10816 10822 10826 10830 10834 10837 10841 10845 10850 10854 10857 10860 10864 10868 10869 10871 10874 10878 10882 10886 10889 10891 10893 10896 10899 10901 10903 10905 10907 10908 10910 10912 10915 10917 10920 10922 10925 10927 10929 10931 10933 10935 10937 10938 10938 10939 10940 10941 10941 10942 10943
10772 10775 10777 10780 10783 10785 10788 10790 10791 10794 10798 10801 10805 10810 10815 10819 10823 10827 10831 10834 10839 10842 10846 10850 10854 10858 10861 10864 10867 10870 10873 10876 10879 10882 10884 10887 10889 10892 10894 10896 10898 10900 10901 10903 10906 10908 10911 10913 10916 10918 10921 10923 10925 10926 10928 10930 10931 10931 10932 10933 10933 10934 10935
10764 10766 10768 10771 10774 10776 10778 10780 10781 10784 10788 10791 10794 10798 10803 10807 10811 10816 10820 10824 10828 10832 10836 10840 10844 10848 10851 10854 10858 10861 10864 10867 10869 10872 10875 10877 10880 10883 10885 10887 10889 10891 10893 10895 10897 10899 10901 10904 10906 10909 10912 10914 10915 10917 10919 10921 10922 10923 10924 10924 10924 10925 10926
10756 10759 10760 10762 10765 10768 10770 10771 10772 10775 10778 10780 10783 10787 10792 10796 10801 10806 10811 10814 10818 10822 10827 10831 10834 10837 10840 10843 10847 10850 10854 10857 10860 10862 10865 10867 10870 10872 10876 10878 10880 10882 10884 10886 10888 10890 10892 10895 10897 10899 10902 10904 10906 10908 10909 10911 10913 10914 10915 10915 10915 10916 10917
10749 10752 10753 10755 10756 10759 10761 10763 10764 10765 10767 10769 10772 10776 10781 10785 10790 10795 10800 10805 10809 10813 10817 10821 10825 10828 10830 10832 10835 10839 10843 10847 10851 10853 10855 10858 10860 10863 10865 10868 10871 10873 10875 10877 10879 10881 10883 10885 10887 10888 10891 10893 10895 10898 10900 10901 10903 10904 10905 10906 10906 10906 10907
10743 10745 10746 10748 10749 10750 10752 10754 10756 10757 10758 10759 10762 10766 10770 10774 10779 10784 10789 10794 10798 10802 10806 10809 10814 10817 10820 10821 10824 10827 10832 10836 10841 10844 10847 10849 10851 10853 10855 10858 10860 10863 10866 10868 10870 10872 10874 10876 10877 10878 10879 10881 10883 10886 10889 10891 10893 10894 10895 10896 10896 10896 10896
10736 10738 10739 10741 10742 10743 10744 10746 10748 10749 10750 10751 10753 10756 10759 10763 10768 10773 10778 10782 10786 10791 10794 10798 10802 10805 10808 10811 10813 10816 10820 10824 10829 10833 10837 10839 10841 10843 10845 10848 10850 10852 10855 10857 10860 10862 10864 10865 10867 10868 10869 10870 10871 10873 10876 10879 10881 10883 10885 10886 10886 10885 10885
10729 10731 10732 10734 10735 10736 10737 10738 10739 10741 10743 10744 10746 10747 10750 10753 10757 10761 10766 10770 10775 10779 10783 10787 10790 10793 10796 10799 10802 10805 10809 10813 10817 10821 10825 10828 10831 10833 10835 10837 10840 10842 10844 10847 10849 10851 10853 10855 10856 10858 10859 10860 10861 10862 10863 10865 10868 10870 10872 10874 10874 10875 10874
10722 10724 10725 10727 10728 10729 10730 10731 10732 10733 10734 10736 10738 10740 10742 10744 10747 10751 10755 10759 10763 10767 10771 10775 10778 10782 10784 10787 10790 10793 10797 10801 10805 10809 10812 10815 10818 10821 10824 10827 10829 10831 10834 10836 10838 10840 10841 10843 10845 10846 10848 10849 10851 10852 10852 10853 10854 10856 10858 10859 10861 10862 10862
10715 10717 10718 10719 10720 10721 10723 10724 10725 10725 10726 10728 10730 10732 10734 10736 10738 10740 10744 10747 10751 10755 10759 10762 10766 10770 10773 10775 10778 10782 10785 10789 10792 10796 10799 10803 10806 10809 10812 10815 10817 10820 10822 10825 10827 10828 10830 10832 10833 10835 10836 10838 10840 10841 10842 10842 10842 10842 10843 10845 10846 10847 10848